Weather Roundup
Issued by NWS

Home | Current Version | Previous Version | Text Only | Print | Product List | Glossary On
Versions: 1 2 3 4 5 6 7 8 9 10 11 12 13 14 15 16 17 18 19 20 21 22 23 24 25 26 27 28 29 30 31 32 33 34 35 36 37 38 39 40 41 42 43 44 45 46 47 48 49 50
733
NZUS93 KARX 222110
HRRWXR

CURRENT HOURLY OBSERVATIONS ACROSS
MUCH OF THE UPPER MISSISSIPPI VALLEY
NATIONAL WEATHER SERVICE LA CROSSE WI
400 PM CDT MON MAY 22 2017


...SOUTHEAST MINNESOTA...


CITY           SKY/WX    TMP DP  RH WIND       PRES   REMARKS
ROCHESTER      MOSUNNY   67  49  52 W6        29.84S
ROCHESTER/MAYO FAIR      67  43  42 W12       29.83F
WINONA         MOSUNNY   68  45  42 CALM      29.82S
AUSTIN         MOSUNNY   66  45  45 CALM      29.83F
ALBERT LEA     MOSUNNY   68  45  42 W6        29.84S
DODGE CENTER   MOSUNNY   64  43  45 W6        29.84S
PRESTON        SUNNY     66  46  47 SW3       29.84F
OWATONNA       MOSUNNY   66  45  45 NW8       29.84S
FARIBAULT      MOSUNNY   66  46  48 W8G16     29.84S
$$

...ELSEWHERE IN MINNESOTA...


CITY           SKY/WX    TMP DP  RH WIND       PRES   REMARKS
MINNEAPOLIS    MOSUNNY   66  42  41 NW13G20   29.82S
INTNL FALLS    LGT RAIN  49  43  80 NW10      29.79R
DULUTH         CLOUDY    53  45  74 W14       29.79R
RED WING       SUNNY     68  39  34 W9G16     29.81S
REDWOOD FALLS  PTSUNNY   64  45  49 NW9       29.84S
MANKATO        MOSUNNY   63  46  54 W9        29.85S
WORTHINGTON    CLOUDY    63  49  60 N12       29.83F
FAIRMONT       PTSUNNY   67  45  45 N5        29.84F
$$

...SOUTHWEST WISCONSIN...


CITY           SKY/WX    TMP DP  RH WIND       PRES   REMARKS
LA CROSSE      PTSUNNY   72  49  44 S13       29.81S
PRAIRIE DU CHI CLOUDY    68  51  54 S6        29.84F
BOSCOBEL       CLOUDY    70  53  54 W8        29.85F
LONE ROCK      CLOUDY    66  51  58 SW12G18   29.85F
PLATTEVILLE    MOSUNNY   67  57  69 S9        29.87F
FORT MC COY    PTSUNNY   67  47  48 W6        29.83S
CAMP DOUGLAS   PTSUNNY   68  46  45 SW14      29.82S
MAUSTON-NEW LI PTCLDY    68  48  49 W9G18     29.82S
VIROQUA        FAIR      67  51  54 SW10      29.85S
WIS DELLS      CLOUDY    64  48  54 SW16      29.85F
$$

...ELSEWHERE IN WISCONSIN...


CITY           SKY/WX    TMP DP  RH WIND       PRES   REMARKS
MILWAUKEE      CLOUDY    65  48  54 W8        29.90F
MADISON        CLOUDY    63  51  65 S7        29.86F
GREEN BAY      PTSUNNY   68  49  50 SW9G20    29.80F
EAU CLAIRE     MOSUNNY   66  43  43 W9        29.80F
BLACK RVR FLS  MOCLDY    70  42  35 W10G16    29.81S
MEDFORD        CLOUDY    58  43  56 W10G18    29.81R
WAUSAU         PTSUNNY   63  42  46 W15G24    29.78F
WIS RAPIDS     MOSUNNY   69  44  40 W12       29.81F
MARSHFIELD     MOSUNNY   66  43  43 W12G22    29.80S
RICE LAKE      PTSUNNY   60  42  52 W12       29.83S
$$

...NORTHEAST IOWA...


CITY           SKY/WX    TMP DP  RH WIND       PRES   REMARKS
WATERLOO       CLOUDY    70  51  51 W10       29.82F
DUBUQUE        PTSUNNY   67  56  67 SW7       29.85F
DECORAH        PTSUNNY   66  50  55 SW12      29.84S
MASON CITY     MOSUNNY   69  50  50 VRB5      29.83F
CHARLES CITY   MOSUNNY   68  52  56 SW8       29.84S
OELWEIN        CLOUDY    70  54  56 W8        29.84F
$$

...ELSEWHERE IN IOWA...


CITY           SKY/WX    TMP DP  RH WIND       PRES   REMARKS
DES MOINES     CLOUDY    71  56  58 SW17      29.86F
IOWA CITY      CLOUDY    67  54  63 SW18G28   29.90F
FORT DODGE     CLOUDY    68  48  49 W9        29.84F
MARSHALLTOWN   CLOUDY    68  56  65 SW17G24   29.84F
CEDAR RAPIDS   CLOUDY    67  58  72 SW22G36   29.86S
$$

...NORTHERN ILLINOIS...


CITY           SKY/WX    TMP DP  RH WIND       PRES   REMARKS
CHICAGO-OHARE  CLOUDY    72  42  34 SW17      29.90F
CHICAGO-MIDWAY PTSUNNY   74  42  31 SW17G30   29.91F
MOLINE         MOSUNNY   68  53  58 SW14G25   29.91S
ROCKFORD       CLOUDY    70  51  51 SW9       29.90F
PEORIA         LGT RAIN  65  55  70 W10       29.98R
$$

NOTE: "FAIR" INDICATES FEW OR NO CLOUDS BELOW 12,000 FEET WITH NO
SIGNIFICANT WEATHER AND/OR OBSTRUCTIONS TO VISIBILITY. WIND
SPEEDS ARE IN MILES-PER-HOUR.




USA.gov is the U.S. government's official web portal to all federal, state and local government web resources and services.